Wind_Speed
14 12 23 15 17 15 12 14 14 15 17 17 18 19 18 16 16 15 14 14 14 15 16 18 19 21 24 27 29 29 26 27 29 31 30 27 26 26 28 29 30 29 29
22 14 18 22 15 14 13 14 16 15 15 16 15 16 15 14 13 14 14 15 16 17 17 18 19 21 22 22 22 23 26 30 28 29 29 29 29 30 32 32 33 34 35
25 22 14 21 18 18 21 19 16 17 16 14 15 18 18 15 14 14 13 13 15 17 17 17 17 16 19 23 26 26 28 29 29 29 30 31 34 37 37 36 39 41 43
30 26 21 23 23 22 19 15 16 21 19 18 14 13 15 17 17 16 15 15 15 17 17 18 18 20 23 24 26 27 27 27 27 27 29 33 34 37 36 40 39 43 46
33 33 25 27 28 23 22 20 15 17 23 22 15 15 20 21 19 18 19 18 20 19 19 21 23 23 24 24 25 26 25 29 32 34 36 36 39 37 39 42 42 47 46
38 38 34 31 31 29 29 27 21 15 18 16 20 19 17 21 25 24 26 21 21 22 26 23 18 21 27 28 30 30 33 34 34 36 38 39 41 41 39 48 47 50 50
42 43 41 39 37 38 35 33 29 28 23 24 25 25 26 23 25 22 22 26 30 30 28 26 26 28 32 31 31 32 34 37 40 41 41 42 43 44 50 49 51 55 55
48 48 47 45 42 45 42 43 44 36 33 30 29 30 29 28 29 31 30 30 32 33 35 34 35 32 33 37 37 34 35 37 35 42 41 41 44 47 50 51 51 54 58
54 54 50 49 48 46 48 47 44 41 39 38 37 38 36 35 34 35 37 37 36 34 35 36 35 34 37 38 40 40 40 44 44 49 47 45 46 50 52 52 53 57 58
51 56 57 58 54 51 49 46 47 43 42 41 41 44 43 42 43 41 41 40 40 40 39 40 39 41 39 40 40 44 45 46 52 55 54 52 52 53 58 60 58 57 54
54 54 50 58 56 56 52 52 50 51 50 50 47 46 46 45 47 47 47 44 45 45 46 47 47 47 45 38 39 46 51 52 60 57 49 55 58 63 65 63 60 56 49
56 56 56 52 59 56 56 56 55 54 54 52 54 52 48 49 48 50 51 49 50 50 49 51 53 51 47 48 53 55 55 52 56 43 57 57 59 62 60 58 58 52 46
57 58 60 60 56 58 60 63 58 58 57 57 56 55 52 52 52 57 56 55 52 52 55 50 49 53 52 58 61 54 55 54 50 67 67 60 58 57 59 48 56 49 46
65 63 63 64 64 62 62 60 59 69 67 60 63 64 66 67 66 63 64 64 65 64 61 60 59 58 57 62 62 61 59 57 58 61 61 58 60 57 49 60 56 50 46
67 64 63 64 64 65 65 64 62 63 63 64 68 68 68 69 72 70 68 68 67 63 61 61 61 60 59 61 62 60 61 61 56 59 56 55 54 53 54 54 52 46 46
63 64 63 64 64 64 65 66 68 68 65 65 64 66 68 68 72 73 70 69 65 63 62 61 61 61 61 61 61 60 60 58 56 56 55 56 59 53 52 47 43 46 48
64 64 65 66 66 66 66 67 68 69 68 69 70 70 71 72 72 70 70 69 68 66 63 62 60 60 58 58 55 55 54 54 55 53 56 59 55 48 44 44 45 48 52
69 70 67 65 66 67 67 66 67 67 67 67 68 67 68 69 68 67 66 66 65 64 62 60 59 58 55 55 55 54 54 55 57 57 54 54 49 47 45 45 48 51 57
68 70 73 70 69 70 69 69 68 68 68 67 66 66 67 67 67 67 66 64 65 63 63 62 60 60 58 58 57 56 55 57 49 39 51 42 42 44 50 48 48 53 54
56 63 66 66 69 72 75 74 73 72 71 71 69 68 68 68 67 67 66 65 65 64 65 65 64 62 62 62 61 58 57 53 45 38 49 41 48 55 52 49 53 57 56
76 72 68 66 66 66 68 72 71 74 74 73 72 71 70 71 71 71 70 69 69 67 67 67 67 65 64 64 63 60 56 52 47 46 54 57 61 54 54 54 56 58 58
73 70 71 68 68 67 68 70 69 70 70 71 71 70 69 69 70 71 70 69 70 68 66 67 67 66 65 63 62 58 54 49 47 49 51 54 54 56 57 58 58 57 57
71 71 71 73 71 74 73 72 72 71 70 70 70 68 67 66 65 65 64 62 61 63 60 62 61 61 59 59 56 53 50 49 45 51 50 54 55 57 57 58 58 54 54
69 71 72 73 74 74 75 75 73 74 73 72 69 67 64 64 63 62 61 62 61 63 63 60 62 60 58 57 55 52 52 51 51 53 59 56 57 58 59 59 58 57 57
66 68 71 74 73 74 75 74 75 76 76 77 75 72 67 64 65 62 61 61 63 63 68 68 66 66 63 61 59 56 58 58 57 56 58 64 58 61 61 60 56 56 56
59 62 65 69 72 74 75 75 76 77 78 78 79 75 71 63 64 60 56 59 62 65 68 74 67 67 65 65 66 64 63 63 63 63 62 60 64 62 60 61 56 56 53
Wind_Direction
219 246 253 273 208 202 209 208 206 199 204 212 222 232 239 246 256 266 273 278 283 292 299 303 305 308 308 310 313 313 325 329 331 329 329 326 324 321 320 319 313 312 311
221 242 268 260 255 235 214 225 227 226 221 221 229 232 237 248 259 265 272 285 293 289 291 296 302 308 315 319 323 324 322 321 322 323 321 324 320 318 318 315 314 310 309
226 230 228 240 234 240 249 250 238 232 228 234 233 237 244 248 253 263 272 284 290 287 284 289 296 304 308 312 315 314 315 314 314 315 319 322 324 319 315 315 314 312 309
238 243 240 231 232 244 252 246 255 253 247 247 243 245 243 243 249 259 263 272 285 288 293 292 284 297 310 310 312 309 310 314 316 319 319 318 320 319 320 318 316 313 311
238 247 254 237 232 237 235 236 247 256 252 250 248 248 255 254 259 267 274 281 286 283 281 280 283 290 297 305 306 310 309 307 311 315 320 320 319 317 318 317 315 318 313
240 244 246 248 232 236 234 239 247 252 255 266 250 263 273 269 264 273 279 277 293 288 284 285 287 290 293 304 304 304 304 302 303 311 314 314 314 312 315 318 316 317 315
248 246 248 247 242 242 244 246 261 264 253 259 266 272 273 267 271 269 272 280 283 281 284 282 284 293 300 302 308 306 309 307 306 307 313 313 312 314 317 317 317 316 314
251 250 249 250 249 246 247 258 265 257 261 260 262 265 270 270 269 272 275 278 281 282 281 280 282 289 299 299 303 302 312 312 309 306 305 308 308 311 317 317 318 316 314
246 249 252 253 249 249 249 260 261 258 258 256 259 263 264 268 270 273 277 280 275 279 282 285 284 290 294 298 304 300 305 311 307 309 305 302 309 309 315 318 316 317 314
244 240 248 251 250 246 248 254 254 258 264 259 259 260 261 264 268 270 276 277 275 276 278 281 284 286 288 293 302 301 302 299 303 300 300 298 306 308 312 312 314 313 310
255 255 250 244 245 248 247 247 251 256 260 260 260 260 259 264 269 274 276 278 276 278 281 284 284 286 284 288 297 298 299 298 304 299 297 302 301 305 308 308 311 308 306
256 259 258 247 244 242 243 247 250 255 256 256 258 258 262 266 271 276 279 279 276 279 282 283 283 283 278 285 297 295 295 298 297 289 308 305 305 304 307 308 309 307 307
256 254 257 260 257 252 248 248 247 249 253 255 254 256 261 266 269 276 277 278 279 278 281 281 282 287 278 284 292 293 292 293 284 292 298 299 305 306 307 306 306 303 306
256 256 255 255 256 258 259 255 254 252 251 256 253 260 264 268 276 277 277 279 280 280 281 281 283 285 283 289 293 292 290 289 288 288 294 304 302 305 301 303 305 307 308
254 255 257 258 258 258 259 262 261 262 257 257 256 260 266 269 274 278 280 279 280 279 279 281 284 287 288 288 290 289 291 291 292 296 297 300 299 302 298 300 301 305 308
252 252 252 253 255 257 258 259 261 263 263 263 261 263 266 269 271 272 273 274 276 279 280 282 284 287 287 288 288 289 291 294 294 298 299 301 299 298 296 297 301 306 310
254 254 254 255 255 254 255 257 259 261 263 265 265 266 267 268 270 271 272 274 276 277 279 281 283 284 285 287 287 290 293 294 295 295 297 297 294 293 292 295 299 303 309
259 258 257 256 257 257 257 258 258 259 260 262 264 265 266 267 268 269 270 272 275 277 278 279 281 282 283 284 286 288 291 293 293 297 296 292 288 287 289 294 297 302 305
254 259 256 256 256 259 259 259 259 260 260 261 263 264 265 266 268 270 272 274 276 277 279 281 282 283 284 283 284 285 288 290 292 297 303 282 280 291 294 296 297 301 302
262 257 258 258 258 258 258 258 259 259 260 261 262 262 265 267 268 271 273 275 276 279 280 281 282 283 283 283 283 285 284 282 284 271 269 271 274 289 291 294 297 301 302
255 257 258 259 259 259 260 260 260 261 260 262 262 262 263 266 268 269 270 271 273 275 276 278 279 280 280 281 281 281 282 280 278 268 260 271 279 287 290 295 299 301 302
259 258 260 260 260 260 259 261 262 262 262 263 263 263 264 265 266 267 269 272 274 275 276 276 275 276 276 276 277 278 277 276 271 267 269 269 276 282 290 296 298 300 302
261 262 262 260 260 262 263 263 263 263 264 264 265 265 266 266 267 268 270 271 275 278 277 277 275 275 276 276 277 276 276 272 269 271 268 275 279 284 291 295 298 301 302
264 263 263 264 263 263 264 264 266 265 264 264 265 266 267 268 269 271 272 275 275 278 279 278 280 280 279 278 277 277 276 274 273 274 278 278 282 289 291 294 298 301 302
265 265 263 262 263 265 265 265 266 267 267 267 266 266 265 268 270 273 279 282 286 287 287 286 282 281 279 279 280 279 277 276 274 275 277 283 286 288 292 294 298 302 302
266 269 269 267 265 263 264 265 266 266 267 267 268 267 267 268 273 278 284 287 286 285 285 282 277 277 279 279 277 273 273 273 274 275 278 280 286 289 293 296 299 300 301
Height
10998 10998 11000 11000 11001 11002 11004 11004 11006 11008 11009 11012 11014 11016 11018 11019 11019 11020 11020 11020 11019 11018 11018 11018 11017 11017 11016 11016 11015 11014 11013 11012 11010 11009 11007 11005 11003 11001 10999 10997 10994 10991 10988
10997 10997 10998 10999 11002 11002 11003 11005 11006 11007 11008 11010 11012 11015 11016 11017 11018 11018 11018 11017 11017 11017 11016 11015 11015 11015 11015 11014 11013 11012 11010 11009 11007 11006 11005 11003 11000 10998 10996 10993 10990 10988 10984
10996 10997 10995 10999 11001 11001 11001 11004 11006 11006 11007 11009 11010 11012 11014 11015 11015 11015 11015 11015 11014 11014 11013 11013 11013 11013 11013 11012 11011 11010 11008 11006 11004 11003 11001 10999 10996 10993 10990 10988 10985 10982 10978
10995 10994 10995 10997 10999 11000 11000 11001 11003 11005 11007 11008 11009 11010 11011 11012 11011 11011 11011 11011 11011 11011 11011 11011 11011 11011 11011 11009 11008 11007 11005 11004 11001 11000 10998 10996 10993 10989 10986 10983 10980 10976 10971
10993 10993 10994 10996 10997 10998 10999 10999 11000 11001 11004 11005 11006 11007 11008 11008 11008 11008 11008 11008 11009 11009 11008 11008 11007 11007 11007 11006 11005 11004 11002 11000 10998 10995 10993 10990 10987 10983 10980 10977 10973 10969 10964
10989 10990 10992 10994 10995 10996 10996 10997 10998 10999 11001 11003 11004 11004 11004 11005 11006 11006 11006 11006 11006 11006 11006 11005 11004 11004 11004 11003 11002 11000 10998 10995 10992 10990 10987 10984 10981 10978 10974 10971 10966 10962 10957
10983 10986 10988 10990 10992 10992 10993 10995 10996 10997 10998 11000 11000 11000 11001 11001 11002 11002 11002 11003 11003 11003 11003 11003 11002 11002 11001 10999 10998 10995 10993 10989 10987 10984 10982 10979 10975 10972 10968 10964 10960 10955 10950
10977 10978 10980 10983 10987 10988 10989 10990 10993 10993 10995 10995 10995 10995 10996 10996 10997 10998 10999 10999 10999 10999 10998 10999 10998 10997 10996 10994 10991 10989 10987 10984 10980 10978 10975 10972 10969 10966 10962 10958 10953 10949 10943
10970 10971 10974 10975 10978 10981 10984 10984 10986 10988 10990 10990 10990 10990 10990 10991 10991 10992 10994 10994 10994 10994 10994 10994 10994 10993 10990 10987 10985 10984 10982 10979 10974 10971 10969 10965 10963 10960 10956 10951 10946 10941 10935
10962 10966 10966 10968 10970 10973 10974 10977 10979 10981 10982 10983 10983 10983 10983 10984 10984 10985 10987 10987 10988 10989 10989 10989 10988 10987 10983 10980 10981 10979 10975 10971 10964 10963 10961 10957 10955 10953 10949 10944 10939 10934 10928
10951 10956 10960 10960 10961 10965 10967 10968 10971 10973 10975 10975 10975 10975 10975 10976 10977 10978 10978 10979 10981 10981 10982 10982 10982 10981 10977 10975 10975 10971 10967 10964 10957 10953 10953 10949 10947 10946 10942 10937 10931 10926 10921
10943 10943 10947 10953 10956 10956 10957 10958 10960 10963 10965 10966 10967 10967 10968 10968 10969 10970 10970 10971 10972 10973 10975 10975 10974 10973 10969 10967 10967 10963 10958 10955 10950 10944 10942 10941 10939 10937 10933 10928 10923 10918 10913
10934 10936 10938 10939 10943 10947 10947 10950 10951 10954 10955 10957 10958 10959 10959 10959 10960 10961 10962 10962 10963 10966 10967 10967 10966 10965 10962 10959 10958 10955 10950 10945 10945 10937 10935 10934 10931 10928 10924 10918 10915 10910 10906
10927 10926 10927 10929 10931 10933 10935 10941 10941 10941 10945 10948 10950 10950 10949 10949 10949 10951 10951 10953 10953 10955 10956 10958 10957 10956 10953 10948 10946 10941 10938 10939 10936 10931 10929 10925 10922 10919 10915 10911 10906 10902 10897
10918 10916 10918 10918 10920 10922 10925 10925 10928 10931 10935 10938 10939 10939 10939 10940 10939 10941 10940 10939 10941 10942 10945 10945 10946 10946 10945 10940 10934 10930 10926 10925 10928 10921 10921 10918 10914 10911 10907 10902 10898 10894 10889
10904 10904 10905 10906 10908 10910 10912 10913 10915 10916 10920 10923 10925 10926 10927 10927 10928 10931 10930 10930 10929 10931 10931 10933 10935 10936 10935 10931 10926 10920 10918 10916 10918 10913 10912 10912 10907 10903 10900 10895 10890 10886 10882
10892 10890 10893 10895 10897 10899 10901 10903 10905 10906 10908 10909 10911 10912 10915 10915 10917 10919 10918 10919 10919 10920 10921 10922 10925 10926 10926 10923 10919 10916 10915 10911 10905 10908 10906 10903 10899 10894 10889 10887 10882 10879 10874
10887 10883 10882 10885 10883 10886 10888 10891 10893 10895 10896 10900 10900 10903 10904 10906 10906 10907 10908 10908 10909 10909 10909 10912 10913 10916 10916 10913 10912 10912 10910 10904 10900 10899 10899 10893 10890 10885 10883 10877 10874 10871 10868
10860 10867 10869 10871 10872 10872 10875 10876 10879 10881 10883 10886 10889 10891 10891 10893 10894 10894 10898 10899 10897 10900 10898 10899 10902 10903 10903 10901 10902 10904 10902 10896 10893 10894 10887 10886 10884 10876 10870 10869 10866 10863 10860
10838 10854 10854 10856 10860 10860 10860 10862 10864 10867 10869 10873 10876 10878 10878 10880 10882 10882 10884 10886 10887 10889 10888 10888 10890 10891 10890 10888 10889 10891 10890 10888 10889 10887 10877 10873 10872 10869 10866 10862 10858 10855 10850
10839 10841 10840 10842 10843 10847 10846 10847 10851 10853 10856 10858 10862 10866 10869 10868 10871 10872 10874 10876 10876 10879 10879 10879 10877 10879 10877 10874 10874 10879 10878 10875 10877 10876 10869 10864 10862 10858 10856 10854 10849 10845 10841
10822 10824 10823 10827 10829 10829 10832 10832 10836 10837 10840 10843 10846 10852 10855 10858 10859 10862 10865 10866 10864 10868 10869 10867 10868 10867 10866 10865 10863 10865 10866 10864 10862 10861 10858 10857 10855 10852 10848 10841 10840 10837 10830
10804 10806 10808 10810 10813 10814 10814 10819 10820 10823 10824 10828 10830 10837 10842 10846 10848 10850 10853 10857 10856 10854 10858 10853 10856 10855 10856 10853 10854 10851 10851 10851 10852 10846 10849 10845 10844 10840 10837 10833 10830 10826 10819
10789 10789 10790 10792 10793 10798 10799 10799 10801 10805 10808 10810 10817 10822 10830 10832 10836 10839 10843 10845 10847 10844 10844 10843 10839 10844 10844 10844 10842 10842 10839 10837 10835 10834 10828 10834 10830 10827 10825 10822 10818 10816 10812
10772 10771 10775 10775 10777 10779 10783 10786 10784 10786 10788 10791 10798 10806 10816 10820 10824 10831 10837 10838 10837 10840 10835 10837 10834 10831 10832 10833 10835 10834 10829 10827 10824 10822 10821 10813 10820 10816 10813 10810 10809 10804 10799
10756 10755 10757 10758 10762 10765 10764 10766 10767 10769 10771 10774 10777 10788 10797 10813 10814 10823 10829 10826 10822 10817 10820 10815 10817 10814 10820 10819 10822 10821 10817 10816 10814 10812 10812 10813 10805 10804 10802 10795 10797 10792 10787